Location: Haliburton Scout Reserve
(45.0900°N, 78.3200°W)
Time: 12:18:27
(UTC-05:00)

N. Korean satellite - Pass Details

Date: 03 December 2021
Orbit: 447 x 491 km, 97.3° (Epoch: 23 January)

Event Time Altitude Azimuth Distance (km) Brightness Sun altitude
Rises 06:35:15 0° 354° (N) 2,470 9.9 -10.1°
Reaches altitude 10° 06:37:55 10° 331° (NNW) 1,586 8.7 -9.7°
Maximum altitude 06:39:57 15° 294° (WNW) 1,290 8.0 -9.4°
Drops below altitude 10° 06:41:59 10° 257° (WSW) 1,574 8.7 -9.0°
Sets 06:44:37 0° 234° (SW) 2,440 9.8 -8.6°
